| time (UTC) | temp F | wind direction | speed knots | gust knots | rain 1hr in | rain 24hr in | rain mn in | humidity % | barometer mb |
| 20260504050325 | 56 | 328 | 7.8 | 17.4 | 0.00 | 0.00 | 0.00 | 48 | 1004.8 |
| 20260504045829 | 58 | 320 | 12.2 | 21.7 | 0.00 | 0.00 | 0.00 | 45 | 1004.8 |
| 20260504045337 | 62 | 3 | 10.4 | 17.4 | 0.00 | 0.00 | 0.00 | 35 | 1002.3 |
| 20260504044825 | 63 | 198 | 7.8 | 12.2 | 0.00 | 0.00 | 0.00 | 26 | 1002.3 |
| 20260504044332 | 63 | 241 | 7.8 | 11.3 | 0.00 | 0.00 | 0.00 | 26 | 1002.3 |
| 20260504043826 | 63 | 206 | 3.5 | 10.4 | 0.00 | 0.00 | 0.00 | 26 | 1002.2 |
| 20260504043333 | 63 | 239 | 4.3 | 12.2 | 0.00 | 0.00 | 0.00 | 26 | 1002.2 |
| 20260504042819 | 63 | 248 | 5.2 | 14.8 | 0.00 | 0.00 | 0.00 | 26 | 1002.3 |
| 20260504042326 | 63 | 222 | 6.1 | 14.8 | 0.00 | 0.00 | 0.00 | 27 | 1002.3 |
| 20260504041837 | 63 | 264 | 7.0 | 11.3 | 0.00 | 0.00 | 0.00 | 27 | 1002.3 |
| 20260504041322 | 62 | 232 | 6.1 | 11.3 | 0.00 | 0.00 | 0.00 | 28 | 1002.7 |
| 20260504040831 | 63 | 243 | 4.3 | 11.3 | 0.00 | 0.00 | 0.00 | 28 | 1002.7 |
| 20260504040339 | 63 | 254 | 6.1 | 11.3 | 0.00 | 0.00 | 0.00 | 28 | 1002.7 |
| 20260504035825 | 63 | 212 | 5.2 | 9.6 | 0.00 | 0.00 | 0.00 | 28 | 1002.8 |
| 20260504035337 | 63 | 224 | 4.3 | 11.3 | 0.00 | 0.00 | 0.00 | 28 | 1002.8 |
| 20260504034824 | 63 | 257 | 6.1 | 11.3 | 0.00 | 0.00 | 0.00 | 29 | 1002.8 |
| 20260504034331 | 63 | 226 | 5.2 | 9.6 | 0.00 | 0.00 | 0.00 | 29 | 1002.8 |
| 20260504033838 | 63 | 205 | 4.3 | 13.9 | 0.00 | 0.00 | 0.00 | 30 | 1003.0 |
| 20260504033326 | 63 | 250 | 6.1 | 13.9 | 0.00 | 0.00 | 0.00 | 30 | 1003.0 |
| 20260504032832 | 63 | 250 | 6.1 | 12.2 | 0.00 | 0.00 | 0.00 | 30 | 1003.0 |
| 20260504032319 | 63 | 251 | 4.3 | 9.6 | 0.00 | 0.00 | 0.00 | 30 | 1003.0 |
| 20260504031828 | 64 | 248 | 5.2 | 11.3 | 0.00 | 0.00 | 0.00 | 29 | 1003.0 |
| 20260504031334 | 64 | 254 | 7.0 | 11.3 | 0.00 | 0.00 | 0.00 | 29 | 1003.0 |
| 20260504030825 | 64 | 250 | 3.5 | 12.2 | 0.00 | 0.00 | 0.00 | 29 | 1002.8 |
| 20260504030333 | 64 | 251 | 6.1 | 12.2 | 0.00 | 0.00 | 0.00 | 29 | 1002.8 |
| 20260504025821 | 64 | 237 | 6.1 | 10.4 | 0.00 | 0.00 | 0.00 | 29 | 1003.2 |
| 20260504025327 | 65 | 236 | 5.2 | 10.4 | 0.00 | 0.00 | 0.00 | 28 | 1003.2 |
| 20260504024834 | 65 | 256 | 4.3 | 8.7 | 0.00 | 0.00 | 0.00 | 28 | 1003.2 |
| 20260504024321 | 65 | 248 | 4.3 | 8.7 | 0.00 | 0.00 | 0.00 | 28 | 1003.3 |
| 20260504023830 | 66 | 232 | 5.2 | 8.7 | 0.00 | 0.00 | 0.00 | 28 | 1003.3 |
| 20260504023338 | 66 | 270 | 3.5 | 7.0 | 0.00 | 0.00 | 0.00 | 28 | 1003.3 |
| 20260504022824 | 66 | 253 | 3.5 | 6.1 | 0.00 | 0.00 | 0.00 | 27 | 1003.3 |
| 20260504022334 | 67 | 253 | 3.5 | 7.0 | 0.00 | 0.00 | 0.00 | 26 | 1003.3 |
| 20260504021826 | 67 | 247 | 1.7 | 7.0 | 0.00 | 0.00 | 0.00 | 26 | 1003.3 |
| 20260504021332 | 68 | 232 | 3.5 | 7.0 | 0.00 | 0.00 | 0.00 | 26 | 1003.3 |
| 20260504020838 | 68 | 243 | 4.3 | 7.0 | 0.00 | 0.00 | 0.00 | 25 | 1003.8 |
| 20260504020326 | 68 | 247 | 4.3 | 11.3 | 0.00 | 0.00 | 0.00 | 25 | 1003.8 |
| 20260504015833 | 68 | 213 | 5.2 | 11.3 | 0.00 | 0.00 | 0.00 | 24 | 1003.8 |
| 20260504015320 | 69 | 251 | 5.2 | 8.7 | 0.00 | 0.00 | 0.00 | 24 | 1003.8 |
| 20260504014827 | 69 | 213 | 2.6 | 8.7 | 0.00 | 0.00 | 0.00 | 24 | 1003.8 |
| 20260504014335 | 69 | 236 | 3.5 | 9.6 | 0.00 | 0.00 | 0.00 | 23 | 1003.8 |
| 20260504013823 | 70 | 256 | 3.5 | 13.9 | 0.00 | 0.00 | 0.00 | 23 | 1003.9 |
| 20260504013334 | 70 | 239 | 5.2 | 13.9 | 0.00 | 0.00 | 0.00 | 23 | 1003.9 |
| 20260504012821 | 70 | 215 | 2.6 | 12.2 | 0.00 | 0.00 | 0.00 | 22 | 1004.1 |
| 20260504012328 | 71 | 241 | 4.3 | 12.2 | 0.00 | 0.00 | 0.00 | 22 | 1004.1 |
| 20260504011834 | 71 | 274 | 6.1 | 11.3 | 0.00 | 0.00 | 0.00 | 22 | 1004.1 |
| 20260504011321 | 71 | 265 | 4.3 | 7.8 | 0.00 | 0.00 | 0.00 | 22 | 1004.5 |
| 20260504010831 | 72 | 250 | 5.2 | 8.7 | 0.00 | 0.00 | 0.00 | 21 | 1004.5 |
| 20260504010338 | 72 | 243 | 3.5 | 9.6 | 0.00 | 0.00 | 0.00 | 21 | 1004.5 |
| 20260504005826 | 72 | 233 | 2.6 | 11.3 | 0.00 | 0.00 | 0.00 | 20 | 1004.5 |
| 20260504005334 | 72 | 281 | 4.3 | 10.4 | 0.00 | 0.00 | 0.00 | 20 | 1004.7 |
| 20260504004825 | 72 | 258 | 1.7 | 11.3 | 0.00 | 0.00 | 0.00 | 20 | 1004.7 |
| 20260504004333 | 73 | 291 | 7.0 | 12.2 | 0.00 | 0.00 | 0.00 | 20 | 1004.7 |
| 20260504003820 | 73 | 271 | 1.7 | 12.2 | 0.00 | 0.00 | 0.00 | 19 | 1005.2 |
| 20260504003327 | 73 | 254 | 6.1 | 10.4 | 0.00 | 0.00 | 0.00 | 19 | 1005.2 |
| 20260504002834 | 73 | 315 | 5.2 | 11.3 | 0.00 | 0.00 | 0.00 | 19 | 1005.2 |
| 20260504002320 | 73 | 246 | 6.1 | 13.9 | 0.00 | 0.00 | 0.00 | 18 | 1005.4 |
| 20260504001826 | 73 | 223 | 4.3 | 13.9 | 0.00 | 0.00 | 0.00 | 18 | 1005.4 |
| 20260504001333 | 73 | 264 | 4.3 | 15.6 | 0.00 | 0.00 | 0.00 | 18 | 1005.4 |
| 20260504000821 | 73 | 206 | 6.1 | 14.8 | 0.00 | 0.00 | 0.00 | 18 | 1006.1 |
| 20260504000328 | 73 | 241 | 4.3 | 13.9 | 0.00 | 0.00 | 0.00 | 19 | 1006.1 |
| 20260503235820 | 73 | 256 | 4.3 | 13.9 | 0.00 | 0.00 | 0.00 | 18 | 1006.5 |
| 20260503235326 | 73 | 234 | 5.2 | 17.4 | 0.00 | 0.00 | 0.00 | 18 | 1006.5 |
| 20260503234836 | 73 | 254 | 7.0 | 17.4 | 0.00 | 0.00 | 0.00 | 18 | 1006.5 |
| 20260503234321 | 73 | 281 | 5.2 | 12.2 | 0.00 | 0.00 | 0.00 | 18 | 1006.7 |
| 20260503233829 | 73 | 260 | 7.8 | 14.8 | 0.00 | 0.00 | 0.00 | 18 | 1006.7 |
| 20260503233337 | 73 | 253 | 6.1 | 14.8 | 0.00 | 0.00 | 0.00 | 18 | 1006.7 |
| 20260503232821 | 73 | 253 | 3.5 | 13.9 | 0.00 | 0.00 | 0.00 | 18 | 1007.0 |
| 20260503232330 | 73 | 195 | 3.5 | 15.6 | 0.00 | 0.00 | 0.00 | 18 | 1007.0 |
| 20260503231837 | 73 | 234 | 7.0 | 15.6 | 0.00 | 0.00 | 0.00 | 18 | 1007.0 |
| 20260503231327 | 73 | 319 | 8.7 | 13.9 | 0.00 | 0.00 | 0.00 | 17 | 1007.0 |
| 20260503230833 | 74 | 234 | 7.0 | 11.3 | 0.00 | 0.00 | 0.00 | 17 | 1007.0 |
| 20260503230321 | 74 | 246 | 5.2 | 11.3 | 0.00 | 0.00 | 0.00 | 17 | 1007.0 |
| 20260503225828 | 74 | 353 | 3.5 | 17.4 | 0.00 | 0.00 | 0.00 | 17 | 1007.0 |
| 20260503225336 | 75 | 268 | 11.3 | 17.4 | 0.00 | 0.00 | 0.00 | 16 | 1007.0 |
| 20260503224824 | 75 | 237 | 4.3 | 14.8 | 0.00 | 0.00 | 0.00 | 17 | 1007.0 |
| 20260503224330 | 76 | 205 | 8.7 | 18.2 | 0.00 | 0.00 | 0.00 | 16 | 1007.0 |
| 20260503223838 | 76 | 232 | 6.1 | 18.2 | 0.00 | 0.00 | 0.00 | 16 | 1007.3 |
| 20260503223325 | 76 | 291 | 6.1 | 12.2 | 0.00 | 0.00 | 0.00 | 16 | 1007.3 |
| 20260503222833 | 76 | 282 | 6.1 | 12.2 | 0.00 | 0.00 | 0.00 | 16 | 1007.3 |
| 20260503222325 | 76 | 223 | 4.3 | 15.6 | 0.00 | 0.00 | 0.00 | 16 | 1007.6 |
| 20260503221834 | 75 | 260 | 7.0 | 16.5 | 0.00 | 0.00 | 0.00 | 16 | 1007.6 |
| 20260503221320 | 75 | 213 | 9.6 | 16.5 | 0.00 | 0.00 | 0.00 | 16 | 1007.6 |
| 20260503220828 | 75 | 250 | 5.2 | 14.8 | 0.00 | 0.00 | 0.00 | 16 | 1007.6 |
| 20260503220335 | 75 | 267 | 7.0 | 14.8 | 0.00 | 0.00 | 0.00 | 16 | 1007.6 |
| 20260503215821 | 75 | 243 | 5.2 | 15.6 | 0.00 | 0.00 | 0.00 | 16 | 1007.8 |
| 20260503215331 | 75 | 246 | 7.8 | 16.5 | 0.00 | 0.00 | 0.00 | 17 | 1007.8 |
| 20260503214819 | 75 | 232 | 9.6 | 16.5 | 0.00 | 0.00 | 0.00 | 17 | 1007.8 |
| 20260503214329 | 75 | 230 | 8.7 | 18.2 | 0.00 | 0.00 | 0.00 | 17 | 1007.8 |
| 20260503213821 | 75 | 244 | 9.6 | 18.2 | 0.00 | 0.00 | 0.00 | 17 | 1008.3 |
| 20260503213327 | 75 | 304 | 9.6 | 16.5 | 0.00 | 0.00 | 0.00 | 17 | 1008.3 |
| 20260503212834 | 75 | 246 | 4.3 | 21.7 | 0.00 | 0.00 | 0.00 | 17 | 1008.3 |
| 20260503212323 | 75 | 224 | 13.0 | 21.7 | 0.00 | 0.00 | 0.00 | 18 | 1008.7 |
| 20260503211831 | 75 | 268 | 7.8 | 16.5 | 0.00 | 0.00 | 0.00 | 18 | 1008.7 |
| 20260503211338 | 75 | 256 | 9.6 | 15.6 | 0.00 | 0.00 | 0.00 | 17 | 1008.7 |
| 20260503210825 | 75 | 258 | 6.1 | 13.0 | 0.00 | 0.00 | 0.00 | 18 | 1009.0 |
| 20260503210332 | 75 | 243 | 6.1 | 15.6 | 0.00 | 0.00 | 0.00 | 17 | 1009.0 |
| 20260503205820 | 75 | 239 | 7.0 | 15.6 | 0.00 | 0.00 | 0.00 | 17 | 1009.5 |
| 20260503205332 | 75 | 239 | 7.0 | 16.5 | 0.00 | 0.00 | 0.00 | 17 | 1009.5 |
| 20260503204837 | 74 | 330 | 5.2 | 16.5 | 0.00 | 0.00 | 0.00 | 17 | 1009.5 |
| 20260503204325 | 74 | 257 | 6.1 | 17.4 | 0.00 | 0.00 | 0.00 | 18 | 1009.5 |
| 20260503203834 | 74 | 261 | 10.4 | 17.4 | 0.00 | 0.00 | 0.00 | 18 | 1009.8 |
| 20260503203321 | 74 | 241 | 8.7 | 16.5 | 0.00 | 0.00 | 0.00 | 18 | 1009.8 |
| 20260503202828 | 74 | 313 | 1.7 | 13.9 | 0.00 | 0.00 | 0.00 | 18 | 1009.8 |
| 20260503202335 | 74 | 306 | 5.2 | 13.9 | 0.00 | 0.00 | 0.00 | 18 | 1010.4 |
| 20260503201823 | 74 | 336 | 7.0 | 13.9 | 0.00 | 0.00 | 0.00 | 17 | 1010.4 |
| 20260503201330 | 73 | 209 | 9.6 | 13.9 | 0.00 | 0.00 | 0.00 | 17 | 1010.4 |
| 20260503200820 | 73 | 229 | 7.0 | 14.8 | 0.00 | 0.00 | 0.00 | 18 | 1010.6 |
| 20260503200327 | 73 | 347 | 8.7 | 13.9 | 0.00 | 0.00 | 0.00 | 18 | 1010.6 |
| 20260503195827 | 73 | 318 | 7.0 | 11.3 | 0.00 | 0.00 | 0.00 | 18 | 1011.0 |
| 20260503195340 | 73 | 241 | 3.5 | 13.9 | 0.00 | 0.00 | 0.00 | 18 | 1011.0 |
| 20260503194820 | 73 | 284 | 10.4 | 13.9 | 0.00 | 0.00 | 0.00 | 18 | 1011.0 |
| 20260503194328 | 73 | 237 | 2.6 | 15.6 | 0.00 | 0.00 | 0.00 | 19 | 1011.0 |
| 20260503193835 | 73 | 258 | 7.8 | 15.6 | 0.00 | 0.00 | 0.00 | 18 | 1011.2 |
| 20260503193321 | 73 | 220 | 5.2 | 13.9 | 0.00 | 0.00 | 0.00 | 19 | 1011.2 |
| 20260503192828 | 73 | 37 | 4.3 | 15.6 | 0.00 | 0.00 | 0.00 | 19 | 1011.2 |
| 20260503192336 | 73 | 281 | 7.0 | 15.6 | 0.00 | 0.00 | 0.00 | 18 | 1011.6 |
| 20260503191823 | 73 | 243 | 8.7 | 12.2 | 0.00 | 0.00 | 0.00 | 20 | 1011.6 |
| 20260503191334 | 72 | 223 | 5.2 | 17.4 | 0.00 | 0.00 | 0.00 | 20 | 1011.6 |
| 20260503190822 | 72 | 312 | 3.5 | 17.4 | 0.00 | 0.00 | 0.00 | 20 | 1011.7 |
| 20260503190330 | 71 | 258 | 6.1 | 14.8 | 0.00 | 0.00 | 0.00 | 18 | 1011.7 |
| 20260503185837 | 71 | 244 | 7.0 | 14.8 | 0.00 | 0.00 | 0.00 | 20 | 1011.7 |
| 20260503185324 | 71 | 234 | 7.0 | 16.5 | 0.00 | 0.00 | 0.00 | 20 | 1012.3 |
| 20260503184831 | 71 | 244 | 10.4 | 16.5 | 0.00 | 0.00 | 0.00 | 20 | 1012.3 |
| 20260503184337 | 71 | 210 | 6.1 | 13.9 | 0.00 | 0.00 | 0.00 | 21 | 1012.3 |
| 20260503183823 | 71 | 244 | 6.1 | 13.9 | 0.00 | 0.00 | 0.00 | 22 | 1012.6 |
| 20260503183329 | 70 | 191 | 5.2 | 18.2 | 0.00 | 0.00 | 0.00 | 21 | 1012.6 |
| 20260503182819 | 70 | 253 | 9.6 | 18.2 | 0.00 | 0.00 | 0.00 | 21 | 1013.3 |
| 20260503182329 | 70 | 256 | 4.3 | 16.5 | 0.00 | 0.00 | 0.00 | 21 | 1013.3 |
| 20260503181835 | 69 | 275 | 7.0 | 16.5 | 0.00 | 0.00 | 0.00 | 21 | 1013.3 |
| 20260503181321 | 69 | 200 | 7.0 | 14.8 | 0.00 | 0.00 | 0.00 | 22 | 1013.4 |
| 20260503180826 | 69 | 257 | 7.0 | 12.2 | 0.00 | 0.00 | 0.00 | 21 | 1013.4 |
| 20260503180333 | 69 | 360 | 4.3 | 12.2 | 0.00 | 0.00 | 0.00 | 22 | 1013.4 |
| 20260503175820 | 69 | 278 | 5.2 | 7.8 | 0.00 | 0.00 | 0.00 | 23 | 1013.7 |
| 20260503175327 | 69 | 270 | 3.5 | 14.8 | 0.00 | 0.00 | 0.00 | 23 | 1013.7 |
| 20260503174835 | 69 | 291 | 5.2 | 14.8 | 0.00 | 0.00 | 0.00 | 22 | 1013.7 |
| 20260503174321 | 69 | 205 | 2.6 | 9.6 | 0.00 | 0.00 | 0.00 | 23 | 1014.2 |
| 20260503173835 | 68 | 309 | 6.1 | 15.6 | 0.00 | 0.00 | 0.00 | 23 | 1014.2 |
| 20260503173323 | 68 | 254 | 1.7 | 15.6 | 0.00 | 0.00 | 0.00 | 24 | 1014.2 |
| 20260503172831 | 68 | 226 | 2.6 | 8.7 | 0.00 | 0.00 | 0.00 | 24 | 1014.2 |
| 20260503172338 | 68 | 226 | 3.5 | 12.2 | 0.00 | 0.00 | 0.00 | 23 | 1014.7 |
| 20260503171825 | 67 | 208 | 4.3 | 12.2 | 0.00 | 0.00 | 0.00 | 23 | 1014.7 |
| 20260503170839 | 68 | 322 | 5.2 | 8.7 | 0.00 | 0.00 | 0.00 | 22 | 1014.7 |
| 20260503170326 | 68 | 203 | 2.6 | 7.0 | 0.00 | 0.00 | 0.00 | 24 | 1014.7 |
| 20260503150824 | 56 | 296 | 4.3 | 9.6 | 0.00 | 0.00 | 0.00 | 40 | 1016.8 |
| 20260503150331 | 55 | 250 | 5.2 | 10.4 | 0.00 | 0.00 | 0.00 | 41 | 1016.8 |
| 20260503131332 | 43 | 224 | 1.7 | 7.0 | 0.00 | 0.00 | 0.00 | 53 | 1017.4 |
| 20260503130838 | 43 | 251 | 2.6 | 7.0 | 0.00 | 0.00 | 0.00 | 53 | 1017.1 |
| 20260503130325 | 43 | 263 | 2.6 | 4.3 | 0.00 | 0.00 | 0.00 | 53 | 1017.1 |
| 20260503110819 | 39 | 323 | 1.7 | 2.6 | 0.00 | 0.00 | 0.00 | 60 | 1016.9 |
| 20260503110327 | 39 | 323 | 1.7 | 2.6 | 0.00 | 0.00 | 0.00 | 60 | 1016.9 |
| 20260503090328 | 42 | 309 | 0.0 | 1.7 | 0.00 | 0.00 | 0.00 | 56 | 1017.6 |
| 20260503081328 | 44 | 350 | 0.9 | 2.6 | 0.00 | 0.00 | 0.00 | 55 | 1017.4 |
| 20260503080836 | 44 | 319 | 0.9 | 2.6 | 0.00 | 0.00 | 0.00 | 55 | 1017.3 |
| 20260503080324 | 44 | 319 | 0.9 | 2.6 | 0.00 | 0.00 | 0.00 | 54 | 1017.3 |
| 20260503072833 | 46 | 11 | 1.7 | 2.6 | 0.00 | 0.00 | 0.00 | 53 | 1017.5 |
| 20260503072325 | 46 | 344 | 1.7 | 2.6 | 0.00 | 0.00 | 0.00 | 52 | 1017.2 |
| 20260503071833 | 46 | 308 | 0.9 | 2.6 | 0.00 | 0.00 | 0.00 | 52 | 1017.2 |
| 20260503071338 | 47 | 3 | 1.7 | 4.3 | 0.00 | 0.00 | 0.00 | 52 | 1017.2 |
| 20260503070826 | 47 | 357 | 2.6 | 4.3 | 0.00 | 0.00 | 0.00 | 51 | 1017.2 |
| 20260503070333 | 47 | 319 | 1.7 | 3.5 | 0.00 | 0.00 | 0.00 | 51 | 1017.2 |
| 20260503060324 | 50 | 291 | 1.7 | 6.1 | 0.00 | 0.00 | 0.00 | 51 | 1017.1 |
| 20260503054830 | 51 | 28 | 1.7 | 6.1 | 0.00 | 0.00 | 0.00 | 51 | 1016.9 |
| 20260503054337 | 51 | 66 | 0.9 | 5.2 | 0.00 | 0.00 | 0.00 | 52 | 1016.9 |
| 20260503053821 | 51 | 31 | 0.9 | 5.2 | 0.00 | 0.00 | 0.00 | 52 | 1017.0 |
| 20260503053328 | 51 | 295 | 1.7 | 5.2 | 0.00 | 0.00 | 0.00 | 52 | 1017.0 |
| 20260503052836 | 51 | 343 | 0.9 | 4.3 | 0.00 | 0.00 | 0.00 | 53 | 1017.0 |
| 20260503052323 | 52 | 27 | 0.0 | 4.3 | 0.00 | 0.00 | 0.00 | 53 | 1016.6 |